SCP
0 0 0 0 0 0 0 0 0 0 0 0 0 0 0 0 0 0 0 0 0 0 0 -0 0 0 0 0 0 0 0 0 0 0 0 0 0 0
0 0 0 0 0 0 0 0 0 0 0 0 0 0 0 0 0 0 0 0 0 0 0 0 0 0 0 0 0 0 0 0 0 0 0 0 0 0
0 0 0 0 0 0 0 0 0 0 0 0 0 0 0 0 0 0 0 0 0 0 0 0 0 0 0 0 0 0 0 0 0 0 0 0 0 0
0 0 0 0 0 0 0 0 0 0 0 0 0 0 0 0 0 0 0 0 0 0 0 0 0 0 0 0 0 0 0 0 0 0 0 0 0 0
0 0 0 0 0 0 0 0 0 0 0 0 0 0 0 0 0 0 0 0 0 0 0 0 0 0 0 0 0 0 0 0 0 0 0 0 0 0
0 0 0 0 0 0 0 0 0 0 0 0 0 0 0 0 0 0 0 0 0 0 0 0 0 0 0 0 0 0 0 0 0 0 0 0 0 0
0 0 0 0 0 0 0 0 0 0 0 0 0 0 0 0 0 0 0 0 0 0 0 0 0 0 0 0 0 0 0 0 0 0 0 0 0 0
0 0 0 0 0 0 0 0 0 0 0 0 0 0 0 0 0 0 0 0 0 0 0 0 0 0 0 0 0 0 0 0 0 0 0 0 0 0
0 0 0 0 0 0 0 0 0 0 0 0 0 0 0 0 0 0 0 0 0 0 0 0 0 0 0 0 0 0 0 0 0 0 0 0 0 0
0 0 0 0 0 0 0 0 0 0 0 0 0 0 0 0 0 0 0 0 0 0 0 0 0 0 0 0 0 0 0 0 0 0 0 0 0 0
0 0 0 0 0 0 0 0 0 0 0 0 0 0 0 0 0 0 0 0 0 0 0 0 0 0 0 0 0 0 0 0 0 0 0 0 0 0
0 0 0 0 0 0 0 0 0 0 0 0 0 0 0 0 0 0 0 0 0 0 0 0 0 0 0 0 0 0 0 0 0 0 0 0 0 0
0 0 0 0 0 0 0 0 0 0 0 0 0 0 0 0 0 0 0 0 0 0 0 0 0 0 0 0 0 0 0 0 0 0 0 0 0 0
0 0 0 0 0 0 0 0 0 0 0 0 0 0 0 0 0 0 0 0 0 0 0 0 0 0 0 0 0 0 0 0 0 0 0 0 0 0
0 0 0 0 0 0 0 0 0 0 0 0 0 0 0 0 0 0 0 0 0 0 0 0 0 0 0 0 0 0 0 0 0 0 0 0 0 0
0 0 0 0 0 0 0 0 0 0 0 0 0 0 0 0 0 0 0 0 0 0 0 0 0 0 0 0 0 0 0 0 0 0 0 0 0 0
0 0 0 0 0 0 0 0 0 0 0 0 0 0 0 0 0 0 0 0 0 0 0 0 0 0 0 0 0 0 0 0 0 0 0 0 0 0
0 0 0 0 0 0 -0 -0 0 0 0 0 0 0 0 0 0 0 0 0 0 0 0 0 0 0 0 0 0 0 0 0 0 0 0 0 0 0
0 0 0 0 0 0 0 0 0 0 0 0 0 0 0 0 0 0 0 0 0 0 0 0 0 0 0 0 0 0 0 0 0 0 0 0 0 0
0 0 0 0 0 0 0 0 0 0 0 0 0 0 0 0 0 0 0 0 0 0 0 0 0 0 0 0 0 0 0 0 0 0 0 0 0 0
0 0 0 0 0 0 0 0 0 0 0 0 0 0 0 0 0 0 0 0 0 0 0 0 0 0 0 0 0 0 0 0 0 0 0 0 0 0
0 0 0 0 0 0 0 0 0 0 0 0 0 0 0 0 0 0 0 0 0 0 0 0 0 0 0 0 0 0 0 0 0 0 0 0 0 0
0 0 0 0 0 0 0 0 0 0 0 0 0 0 0 0 0 0 0 0 0 0 0 0 0 0 0 0 0 0 0 0 0 0 0 0 0 0
Wind_Speed_500mb
115 117 116 114 91 120 116 105 90 60 77 79 80 86 78 75 68 62 52 43 39 32 34 21 27 27 29 32 37 40 39 43 45 50 56 59 62 69
111 116 116 118 102 113 107 108 104 90 76 70 69 64 60 71 73 64 53 48 41 37 39 26 30 31 33 36 40 44 43 45 47 54 59 60 64 76
110 115 114 106 111 106 106 102 94 90 73 58 64 52 54 65 73 65 56 52 42 42 33 34 32 35 36 40 40 46 52 48 55 61 61 60 73 78
104 109 113 94 105 113 104 98 95 92 81 64 63 51 56 59 65 61 56 47 46 43 38 38 37 37 38 39 43 49 55 62 66 69 57 67 70 76
98 101 101 95 104 101 96 97 90 82 77 66 57 49 64 63 65 62 55 49 52 42 40 42 35 39 37 40 43 49 58 62 65 65 62 62 66 73
87 94 96 101 101 101 93 95 86 76 72 58 45 54 68 62 63 55 55 55 51 39 41 41 38 38 39 41 43 50 55 60 64 67 57 62 62 64
84 83 93 97 91 93 93 92 79 78 69 57 53 60 57 67 62 62 58 59 44 42 42 41 38 39 39 41 44 51 57 60 64 70 65 61 60 57
83 84 87 89 88 86 86 76 75 79 76 64 72 63 67 65 59 56 64 52 47 44 41 42 40 39 40 39 44 51 56 56 63 60 61 63 51 52
79 81 83 84 84 79 73 66 66 70 59 66 66 69 68 52 49 65 56 52 46 42 40 49 39 41 38 39 44 51 48 55 55 57 60 52 47 50
75 74 76 78 79 76 68 66 66 63 64 77 69 60 41 43 50 47 45 46 46 43 39 51 44 41 38 39 45 44 48 47 53 55 54 50 47 49
72 72 69 71 68 66 64 72 70 70 74 54 52 49 37 40 40 46 43 44 45 41 40 45 45 41 43 41 36 40 38 49 55 53 47 46 46 49
66 65 66 61 55 54 64 75 74 78 63 66 51 37 32 26 36 39 40 46 43 40 40 37 38 39 31 38 30 40 36 43 53 47 41 41 44 54
60 60 59 51 42 53 69 70 69 68 69 47 32 23 19 29 37 42 43 43 41 40 45 41 46 45 42 46 46 45 38 46 49 47 38 39 43 48
48 46 44 41 47 55 61 62 66 58 54 38 25 16 27 36 45 47 47 47 39 44 45 43 49 46 47 52 50 47 47 42 49 40 43 43 42 44
27 26 25 32 43 50 56 57 71 55 37 24 21 31 35 37 37 40 44 42 44 44 44 47 49 49 48 50 47 55 60 50 39 38 42 42 45 47
13 14 17 29 44 53 54 54 55 28 26 27 35 37 38 38 38 39 42 41 44 45 46 49 51 51 47 44 49 53 49 42 46 48 47 43 39 38
12 15 25 40 51 54 55 51 34 35 36 37 45 43 44 41 41 40 41 44 47 45 46 50 53 49 49 48 53 47 49 44 40 47 52 48 40 38
15 23 32 50 56 60 65 59 57 46 41 41 48 49 45 42 43 43 46 48 48 51 50 47 47 51 55 51 46 46 44 39 39 45 46 52 49 37
21 25 30 36 40 42 45 46 49 54 49 52 56 46 43 43 43 46 50 51 54 54 49 46 47 50 54 57 45 40 46 34 43 48 46 47 51 44
15 19 24 25 27 30 34 37 38 45 53 49 44 43 41 42 43 49 53 56 55 51 49 47 49 48 49 48 48 39 42 46 43 50 49 50 47 43
22 20 19 20 19 21 28 34 38 40 40 40 39 38 41 46 48 50 50 49 48 49 49 47 43 45 48 47 52 49 37 38 40 46 49 53 54 50
25 25 23 24 27 28 32 38 37 35 34 35 37 38 40 42 43 43 44 45 46 44 45 43 46 45 44 45 47 49 49 40 36 38 39 40 44 42
17 20 24 28 30 32 31 29 29 30 32 32 33 35 37 38 38 41 43 42 42 44 44 44 45 45 43 43 46 48 47 44 46 38 27 28 33 37
Wind_Direction_500mb
257 262 259 248 263 267 258 248 247 232 239 237 234 232 229 230 228 228 227 230 236 242 251 259 272 280 287 298 307 315 320 322 322 320 319 319 319 320
255 254 258 252 257 265 259 255 253 249 248 249 235 235 239 236 225 225 225 229 235 245 250 262 270 278 288 299 308 317 317 318 320 318 320 319 320 320
255 256 255 255 263 263 261 258 253 245 236 244 239 231 240 231 218 219 221 228 236 244 252 260 272 275 288 297 309 313 316 317 317 318 320 321 321 320
253 253 255 255 256 261 258 255 249 239 232 233 235 226 226 220 214 220 222 228 238 241 253 268 266 276 287 297 307 311 314 317 319 320 324 320 321 320
258 257 256 261 262 253 253 251 244 238 230 231 224 219 227 208 207 214 219 231 237 244 253 263 269 278 286 298 304 310 314 314 320 321 321 320 320 323
256 258 259 260 260 257 254 249 243 230 229 223 217 228 213 211 210 213 223 233 234 239 252 261 271 277 290 297 306 307 310 317 319 320 320 322 328 331
257 257 260 262 257 256 253 251 236 228 218 205 212 200 220 213 212 218 227 230 237 240 250 264 267 282 293 298 305 307 313 317 319 320 325 329 331 333
258 260 263 261 257 259 254 244 241 237 207 197 200 219 217 214 216 224 227 231 230 243 251 259 273 288 294 298 303 309 312 314 319 326 329 327 331 328
260 260 261 260 255 250 243 236 234 219 210 200 211 218 212 218 219 229 235 233 235 247 262 272 281 287 292 299 305 307 306 315 325 328 324 327 328 325
259 263 265 262 256 248 238 232 208 200 204 210 221 218 215 217 235 243 240 236 241 253 264 277 286 289 294 301 303 299 305 324 324 321 321 327 326 324
261 260 259 260 257 245 232 212 199 192 205 209 233 215 229 233 248 246 242 247 251 259 264 275 284 292 296 300 298 292 317 321 316 317 322 326 324 322
259 261 260 256 246 238 224 204 194 200 203 218 215 220 235 261 269 247 245 248 252 266 273 270 285 293 300 301 290 304 314 309 312 319 320 326 327 324
260 261 257 249 221 219 211 202 197 205 216 209 211 222 251 269 255 250 251 251 257 263 268 277 284 287 289 291 299 303 306 313 312 315 318 326 330 331
262 261 259 245 218 215 205 197 209 210 222 205 209 244 274 278 258 251 251 253 256 260 266 275 278 284 288 292 298 302 306 311 309 308 319 324 327 331
252 258 255 230 210 200 208 209 212 209 199 218 260 278 283 282 260 248 244 246 253 256 267 275 279 282 284 288 296 302 307 313 307 305 313 320 328 332
235 210 205 200 196 199 209 219 209 221 249 265 275 279 285 275 256 249 251 252 251 258 270 277 279 280 284 293 294 297 302 302 303 305 308 316 322 328
217 189 185 186 191 199 209 200 223 240 252 263 273 277 284 267 258 256 253 254 255 262 271 274 277 285 290 291 290 293 296 295 295 301 308 310 316 324
191 184 180 188 192 203 211 224 235 239 246 261 279 278 268 257 256 255 256 259 263 268 271 270 278 284 286 286 288 294 291 291 293 299 304 306 311 321
186 188 192 197 207 214 222 230 239 248 253 272 279 269 265 258 255 254 256 258 262 267 268 271 275 278 282 286 290 290 290 290 296 298 300 302 307 317
204 209 213 216 224 231 240 247 250 253 264 269 267 263 259 256 259 255 254 259 263 264 267 273 276 278 279 283 284 283 291 293 295 296 300 300 305 311
230 246 248 253 253 256 257 254 253 256 261 262 261 258 256 258 259 257 258 258 259 264 271 274 278 270 273 277 280 292 288 288 294 297 300 302 307 311
238 250 256 263 260 257 259 266 267 263 258 257 256 256 256 256 255 254 254 257 263 267 270 269 270 270 271 276 283 288 293 291 287 287 287 290 293 292
240 246 251 254 256 258 259 261 262 259 259 260 261 260 260 260 258 257 259 260 260 262 265 268 269 270 272 277 281 286 290 296 298 294 280 279 283 283
Wind_Speed_850mb
115 117 116 114 91 120 116 105 90 60 77 79 80 86 78 75 68 62 52 43 39 32 34 21 27 27 29 32 37 40 39 43 45 50 56 59 62 69
111 116 116 118 102 113 107 108 104 90 76 70 69 64 60 71 73 64 53 48 41 37 39 26 30 31 33 36 40 44 43 45 47 54 59 60 64 76
110 115 114 106 111 106 106 102 94 90 73 58 64 52 54 65 73 65 56 52 42 42 33 34 32 35 36 40 40 46 52 48 55 61 61 60 73 78
104 109 113 94 105 113 104 98 95 92 81 64 63 51 56 59 65 61 56 47 46 43 38 38 37 37 38 39 43 49 55 62 66 69 57 67 70 76
98 101 101 95 104 101 96 97 90 82 77 66 57 49 64 63 65 62 55 49 52 42 40 42 35 39 37 40 43 49 58 62 65 65 62 62 66 73
87 94 96 101 101 101 93 95 86 76 72 58 45 54 68 62 63 55 55 55 51 39 41 41 38 38 39 41 43 50 55 60 64 67 57 62 62 64
84 83 93 97 91 93 93 92 79 78 69 57 53 60 57 67 62 62 58 59 44 42 42 41 38 39 39 41 44 51 57 60 64 70 65 61 60 57
83 84 87 89 88 86 86 76 75 79 76 64 72 63 67 65 59 56 64 52 47 44 41 42 40 39 40 39 44 51 56 56 63 60 61 63 51 52
79 81 83 84 84 79 73 66 66 70 59 66 66 69 68 52 49 65 56 52 46 42 40 49 39 41 38 39 44 51 48 55 55 57 60 52 47 50
75 74 76 78 79 76 68 66 66 63 64 77 69 60 41 43 50 47 45 46 46 43 39 51 44 41 38 39 45 44 48 47 53 55 54 50 47 49
72 72 69 71 68 66 64 72 70 70 74 54 52 49 37 40 40 46 43 44 45 41 40 45 45 41 43 41 36 40 38 49 55 53 47 46 46 49
66 65 66 61 55 54 64 75 74 78 63 66 51 37 32 26 36 39 40 46 43 40 40 37 38 39 31 38 30 40 36 43 53 47 41 41 44 54
60 60 59 51 42 53 69 70 69 68 69 47 32 23 19 29 37 42 43 43 41 40 45 41 46 45 42 46 46 45 38 46 49 47 38 39 43 48
48 46 44 41 47 55 61 62 66 58 54 38 25 16 27 36 45 47 47 47 39 44 45 43 49 46 47 52 50 47 47 42 49 40 43 43 42 44
27 26 25 32 43 50 56 57 71 55 37 24 21 31 35 37 37 40 44 42 44 44 44 47 49 49 48 50 47 55 60 50 39 38 42 42 45 47
13 14 17 29 44 53 54 54 55 28 26 27 35 37 38 38 38 39 42 41 44 45 46 49 51 51 47 44 49 53 49 42 46 48 47 43 39 38
12 15 25 40 51 54 55 51 34 35 36 37 45 43 44 41 41 40 41 44 47 45 46 50 53 49 49 48 53 47 49 44 40 47 52 48 40 38
15 23 32 50 56 60 65 59 57 46 41 41 48 49 45 42 43 43 46 48 48 51 50 47 47 51 55 51 46 46 44 39 39 45 46 52 49 37
21 25 30 36 40 42 45 46 49 54 49 52 56 46 43 43 43 46 50 51 54 54 49 46 47 50 54 57 45 40 46 34 43 48 46 47 51 44
15 19 24 25 27 30 34 37 38 45 53 49 44 43 41 42 43 49 53 56 55 51 49 47 49 48 49 48 48 39 42 46 43 50 49 50 47 43
22 20 19 20 19 21 28 34 38 40 40 40 39 38 41 46 48 50 50 49 48 49 49 47 43 45 48 47 52 49 37 38 40 46 49 53 54 50
25 25 23 24 27 28 32 38 37 35 34 35 37 38 40 42 43 43 44 45 46 44 45 43 46 45 44 45 47 49 49 40 36 38 39 40 44 42
17 20 24 28 30 32 31 29 29 30 32 32 33 35 37 38 38 41 43 42 42 44 44 44 45 45 43 43 46 48 47 44 46 38 27 28 33 37
Wind_Direction_850mb
257 262 259 248 263 267 258 248 247 232 239 237 234 232 229 230 228 228 227 230 236 242 251 259 272 280 287 298 307 315 320 322 322 320 319 319 319 320
255 254 258 252 257 265 259 255 253 249 248 249 235 235 239 236 225 225 225 229 235 245 250 262 270 278 288 299 308 317 317 318 320 318 320 319 320 320
255 256 255 255 263 263 261 258 253 245 236 244 239 231 240 231 218 219 221 228 236 244 252 260 272 275 288 297 309 313 316 317 317 318 320 321 321 320
253 253 255 255 256 261 258 255 249 239 232 233 235 226 226 220 214 220 222 228 238 241 253 268 266 276 287 297 307 311 314 317 319 320 324 320 321 320
258 257 256 261 262 253 253 251 244 238 230 231 224 219 227 208 207 214 219 231 237 244 253 263 269 278 286 298 304 310 314 314 320 321 321 320 320 323
256 258 259 260 260 257 254 249 243 230 229 223 217 228 213 211 210 213 223 233 234 239 252 261 271 277 290 297 306 307 310 317 319 320 320 322 328 331
257 257 260 262 257 256 253 251 236 228 218 205 212 200 220 213 212 218 227 230 237 240 250 264 267 282 293 298 305 307 313 317 319 320 325 329 331 333
258 260 263 261 257 259 254 244 241 237 207 197 200 219 217 214 216 224 227 231 230 243 251 259 273 288 294 298 303 309 312 314 319 326 329 327 331 328
260 260 261 260 255 250 243 236 234 219 210 200 211 218 212 218 219 229 235 233 235 247 262 272 281 287 292 299 305 307 306 315 325 328 324 327 328 325
259 263 265 262 256 248 238 232 208 200 204 210 221 218 215 217 235 243 240 236 241 253 264 277 286 289 294 301 303 299 305 324 324 321 321 327 326 324
261 260 259 260 257 245 232 212 199 192 205 209 233 215 229 233 248 246 242 247 251 259 264 275 284 292 296 300 298 292 317 321 316 317 322 326 324 322
259 261 260 256 246 238 224 204 194 200 203 218 215 220 235 261 269 247 245 248 252 266 273 270 285 293 300 301 290 304 314 309 312 319 320 326 327 324
260 261 257 249 221 219 211 202 197 205 216 209 211 222 251 269 255 250 251 251 257 263 268 277 284 287 289 291 299 303 306 313 312 315 318 326 330 331
262 261 259 245 218 215 205 197 209 210 222 205 209 244 274 278 258 251 251 253 256 260 266 275 278 284 288 292 298 302 306 311 309 308 319 324 327 331
252 258 255 230 210 200 208 209 212 209 199 218 260 278 283 282 260 248 244 246 253 256 267 275 279 282 284 288 296 302 307 313 307 305 313 320 328 332
235 210 205 200 196 199 209 219 209 221 249 265 275 279 285 275 256 249 251 252 251 258 270 277 279 280 284 293 294 297 302 302 303 305 308 316 322 328
217 189 185 186 191 199 209 200 223 240 252 263 273 277 284 267 258 256 253 254 255 262 271 274 277 285 290 291 290 293 296 295 295 301 308 310 316 324
191 184 180 188 192 203 211 224 235 239 246 261 279 278 268 257 256 255 256 259 263 268 271 270 278 284 286 286 288 294 291 291 293 299 304 306 311 321
186 188 192 197 207 214 222 230 239 248 253 272 279 269 265 258 255 254 256 258 262 267 268 271 275 278 282 286 290 290 290 290 296 298 300 302 307 317
204 209 213 216 224 231 240 247 250 253 264 269 267 263 259 256 259 255 254 259 263 264 267 273 276 278 279 283 284 283 291 293 295 296 300 300 305 311
230 246 248 253 253 256 257 254 253 256 261 262 261 258 256 258 259 257 258 258 259 264 271 274 278 270 273 277 280 292 288 288 294 297 300 302 307 311
238 250 256 263 260 257 259 266 267 263 258 257 256 256 256 256 255 254 254 257 263 267 270 269 270 270 271 276 283 288 293 291 287 287 287 290 293 292
240 246 251 254 256 258 259 261 262 259 259 260 261 260 260 260 258 257 259 260 260 262 265 268 269 270 272 277 281 286 290 296 298 294 280 279 283 283